|
Asteroid 2004 HZ
(Preview)
|
Solar System
|
1
|
3016
|
|
|
The magnitude: 22.26, 94 - 210 metre sized NEO 2004 HZ is to have a near-Earth Flyby on April 25th, 2007. On that date the miss distance is currently listed at 0.0303AU. There is however an impact risk on 18th October 2023, with an impac...
|
|
|
|
|
|
Double Asteroids
(
1 2 3
)
(Preview)
|
Solar System
|
26
|
39977
|
|
|
Until recently, natural satellites were only known around the major planets.
The Moon orbits the Earth, there are two tiny moons around Mars, each of the giant planets Jupiter, Saturn, Uranus and Neptune has many more, and even the smallest and outermost, Pluto, is accompanied by one.
Howev...
|
|
|
|
|
|
Asteroid Snowdonia
(Preview)
|
Solar System
|
0
|
2592
|
|
|
Schools from across the UK have named a new asteroid discovered using the Faulkes Telescope Project's facility in Hawaii. The mountain-sized asteroid, found between Mars and Jupiter, has been officially named Snowdonia as a tribute to the beauty of this famous Welsh region. The asteroid was offi...
|
|
|
|
|
|
Caelumnoctu 57424
(Preview)
|
Solar System
|
0
|
3705
|
|
|
[url=http://www.activeboard.com/forum.spark?forumID=58381&p=3&topicID=3140670&comme...
|
|
|
|
|
|
Asteroid 1862 Apollo
(Preview)
|
Solar System
|
4
|
3711
|
|
|
An international research team led by Academy Research Fellow Mikko Kaasalainen has found an asteroid whose rotation receives an extra kick from solar radiation. The asteroid 1862 Apollo's diameter is about 1.5 km, it has a small m...
|
|
|
|
|
|
Asteroids KO7D84U, KO7C54Q and KO7D84W
(Preview)
|
Solar System
|
0
|
2634
|
|
|
The Sacramento region does not need to look too far to find future astronomers. Cordova High School’s astronomy class, taught by physical science teacher Glenn Reagan, is has already discovered three new asteroids through the International Asteroid Search Campaign (IASC). When their finding...
|
|
|
|
|
|
Asteroid (372) Palma
(Preview)
|
Solar System
|
9
|
4371
|
|
|
On the morning of January 26th, at least 20 observers spread from Virginia to northern California timed the occultation of the star 32 Lyncis by the asteroid (372) Palma — in spite of the track shifting nearly half a path-width south of what was predicted. Although it was the coldest night of the seaso...
|
|
|
|
|
|
Asteroid 2006AM4
(Preview)
|
Solar System
|
0
|
2678
|
|
|
2006 AM4 was discovered by the Mount Lemmon Survey (University of Arizona) on January 8, 2006. The asteroid will approach within 0.013 AU (5.2 lunar distances) on February 1. Its physical properties are unknown, but its absolute magnitude of 21.8 suggests a diameter within a factor of two of 140 met...
|
|
|
|
|
|
132524 APL
(Preview)
|
Solar System
|
0
|
2938
|
|
|
APL Rocks! Asteroid Named After JHU Applied Physics Lab The lab that landed the first spacecraft on an asteroid now has its name on one of the sun-orbiting space rocks. Lauding the Johns Hopkins University Applied Physics Laboratory's leading role in several planetary missions, the Internat...
|
|
|
|
|
|
Asteroid (4073) Rui'an
(Preview)
|
Solar System
|
0
|
2570
|
|
|
A naming ceremony was held yesterday in the city of Rui'an, in east China's Zhejiang Province, to name an asteroid from the solar system after Rui'an Middle School, local education authorities said.
It is the first time an asteroid has been named after a Chinese middle school.
The asteroid wa...
|
|
|
|
|
|
Asteroid 2006BQ6
(Preview)
|
Solar System
|
0
|
2434
|
|
|
Asteroid 2006 BQ6 was discovered by the Mt. Lemmon Survey (University of Arizona) on January 22, 2006.
It will approach within 0.037 AU (14 lunar distances) of Earth on July 29.
Its physical properties are unknown, but its absolute magnitude of 19.5 suggests a diameter within a...
|
|
|
|
|
|
Asteroid 2006 OF2
(Preview)
|
Solar System
|
0
|
2468
|
|
|
A new Damocloid asteroid, 2006 OF2 discovered.
ate TT R. A. (2000) Decl. Delta r Elong. Phase V
2006 07 14 20 45.54 -27 34.2 6.736 7.711 162.4 2.3 18.5
2006 07 24 20 40.81 -27 41.7 6.638 7.640 169.9 1.3 18.4
2006 08 03 20 35.82 -27 46.7 6.570 7.569 169.2 1.4 18.4
2006 08 13 20 30.83 -27 48.5...
|
|
|
|
|
|
Asteroid 43844 Rowling
(Preview)
|
Solar System
|
0
|
2783
|
|
|
Harry Potter author J.K. Rowling now has an asteroid named in her honour. The honour was bestowed by the International Astronomical Union, who named asteroid # 43844 'Rowling.'
Dr. Mark Hammergren who discovered the aste...
|
|
|
|
|
|
Asteroid (6406) 1992MJ
(Preview)
|
Solar System
|
2
|
2710
|
|
|
Silvano Casulli, Colleverde di Guidonia, Rome, Italy, and R. Behrend, Geneva Observatory, Switzerland, have reported that they have taken photometric measurements over three recent nights of the 14th magnitude near earth asteroid (6406) 1992 MJ.
They observed deep eclipses (~0.7 mag) with...
|
|
|
|
|
|
Asteroids Spoelhof and Griffioen
(Preview)
|
Solar System
|
0
|
2560
|
|
|
Asteroids discovered by students and professors at Calvin College now bear the names of two Calvin retirees: former Calvin president Dr. William Spoelhof and former Calvin dean and physics department chair Roger Griffioen.
Each asteroid is approximately the size of Calvin's entire Knollcre...
|
|
|
|
|
|
Comet-like Asteroids
(Preview)
|
Solar System
|
0
|
2978
|
|
|
Some asteroids that have comet-like orbits may actually be comets that have lost gases and other easily vaporised substances, according to a NASA research team.
The team will present its findings at the American Astronomical Society's Division for Planetary Sciences annual meeting in Camb...
|
|
|
|
|
|
Asteroid (21238) 1995WV7
(Preview)
|
Solar System
|
1
|
4680
|
|
|
Title: (21238) 1995 WV7: A New Basaltic Asteroid Outside the 3:1 Mean Motion Resonance
Authors: Mark Hammergren (Adler), Geza Gyuk (Adler/U of Chicago), Andrew Puckett (U of Chicago)
We report visible to near-infrared spectroscopy and spectrophotometry of asteroid (21...
|
|
|
|
|
|
Asteroid 2007 LQ19
(Preview)
|
Solar System
|
1
|
2547
|
|
|
2007 LQ19 Earth Impact Risk Summary Torino Scale (maximum) Palermo Scale (maximum) -2.51 Palermo Scale (cumulative) -2.51 Impact Probability (cumulative) 1.5e-06 Number of Potential Impacts 1 Vimpact 17.99 km/s Vinfinity 14.12 km/s H 17.9 Diameter 0.900 km Mass 1.0e+12 kg Energy 3.9e+04 MT a...
|
|
|
|
|
|
Asteroid 2005 AD13
(Preview)
|
Solar System
|
0
|
2551
|
|
|
The 690 m - 1.5 km sized near Earth Apollo asteroid 2005 AD13 (NEO, PHA) is predicted to make a flyby of the Earth on June 18th, 09:36 UT. The magnitude 15.5 asteroid should pass about 33.3 lunar distances away (0.08549 AU) towards the constellation Ursa Major. Relative Velocity: 23.73 km/s [url=htt...
|
|
|
|
|
|
Vesta
(
1 2 3 4 5 … 10
)
(Preview)
|
Solar System
|
95
|
38205
|
|
|
Since 30 years, Vesta, one of the three largest main belt bodies, poses a problem to the scientists: "Given that its basaltic surface is roughly similar to t...
|
|
|
|
|
|
Asteroid 2006 VV2
(Preview)
|
Solar System
|
8
|
3666
|
|
|
On March 31st, asteroid 2006 VV2 will pass close to the Earth at a distance of 8.8 lunar distances. The 2-km wide asteroid will be visible as a 9 ot 10th magnitude moving star. See orbit ate TT R. A. (2000) Decl. Delta r Elong. P...
|
|
|
|
|
|
Asteroid 2007 GX01
(Preview)
|
Solar System
|
0
|
2481
|
|
|
By taking advantage of newly-established astronomical equipment, researchers with the CAS Purple Mountain Observatory discovered a near-earth objective (NEO) on 10 April, making the total of similar findings to 19 within the past two months. The 18th magnitude minor planet was located in the c...
|
|
|
|
|
|
Minor planet 49272
(Preview)
|
Solar System
|
0
|
2813
|
|
|
The International Astronomical Union approved the naming of minor planet 49272 to Bryce Canyon this month. The asteroid, discovered by astronomer Roy Tucker in 1998 is one of literally hundreds of thousands of asteroids circling the sun ranging in size from several yards across to hundreds of mil...
|
|
|
|
|
|
2006 UX184
(Preview)
|
Solar System
|
1
|
4737
|
|
|
rbital elements:
2006 UX184
Epoch 2006 Nov. 1.0 TT = JDT 2454040.5 MPC
M 344.76707 (2000.0) P Q
n 0.00411441 Peri. 22.65374 +0.51781709 -0.76343359
a 38.5713333 Node 39.47409 +0.66195719 +0.07170128
e 0.4761844 Incl. 37.39131 +0.54192080 +0.64189414
P 240 H 8.4 G 0.15
...
|
|
|
|
|
|
NEA 2006RZ
(Preview)
|
Solar System
|
1
|
2550
|
|
|
2006 RZ was discovered by Helmut Michels at Herrenberg Observatory (Germany) on September 4, 2006.
It will approach within 0.0129 AU (4.9 lunar distances) on October 7. Its physical properties are unknown, but its absolute magnitude of 20.1 suggests a diameter within a factor of two of 300 meter...
|
|
|
|
|
|
NEA 2006 TC1
(Preview)
|
Solar System
|
0
|
2395
|
|
|
2006 TC1 Earth Impact Risk Summary based on 21 observations spanning .98657 days
(2006-Oct-03.31668 to 2006-Oct-04.30325)
Date Distance Probability Energy Palermo Torino
2015-02-13.26 0.12 1.1e-08 7.84e+03 -4.23
[url=http://neo.jpl.nasa.gov/ri...
|
|
|
|
|
|
2006WZ2
(Preview)
|
Solar System
|
0
|
2381
|
|
|
rbital elements:
2006 WZ2
Epoch 2006 Sept. 22.0 TT = JDT 2454000.5 MPC
M 359.25991 (2000.0) P Q
n 0.04686800 Peri. 110.27311 -0.38480948 -0.92279345
a 7.6187737 Node 2.60998 +0.60546112 -0.26818237
e 0.7929662 Incl. 25.12804 +0.69666240 -0.27664141
P 21.03 H 16.1 G 0.15 U...
|
|
|
|
|
|
2004 XP14
(
1 2
)
(Preview)
|
Solar System
|
11
|
9926
|
|
|
This coming July features a spectacular flyby of the near-Earth Apollo asteroid 2004 XP14. Like the flyby of 2002 NY40 in 2002, 2004 XP14 will amaze visual observers with incredible speed visible in medium size telescopes.
Near close approach around 4:44m UT July 3, this 600-meter/ya...
|
|
|
|
|
|
Damocloids
(Preview)
|
Solar System
|
1
|
2413
|
|
|
A table of 'Oort cloud asteroids', or 'Damocloid' objects (as of October 12th 2005).
Created by Akimasa Nakamura.
Name H a e i q P
(5335) Damocles 13.3 11.8 0.87 62.0 1.58 40.7
1996 PW 14.0 253.6 0.99 29.8 2.53 4040
1997 MD10 16.0 26.5 0.94 59.2 1.54 136
1998 QJ1 16.7 11.2 0.81 23...
|
